This is the latest recevied weather packets stored in our database for station/object OE2ATN. If no packets are shown the sender has not sent any weather packets the latest 1 day(s).
| Time | Temp. | Humidity | Pressure | Rain* | Wind** | Luminosity | Snow |
|---|---|---|---|---|---|---|---|
| 1778004605 | 15.56° C | 55% | 1014.4 hPa | 0 mm | 0.45 m/s, 307° | - | - |
| 1778004305 | 15.56° C | 54% | 1014.3 hPa | 0 mm | 0.45 m/s, 309° | - | - |
| 1778004008 | 16.11° C | 53% | 1014.3 hPa | 0 mm | 0.45 m/s, 305° | - | - |
| 1778003704 | 16.11° C | 53% | 1014.3 hPa | 0 mm | 0.89 m/s, 302° | - | - |
| 1778003404 | 16.67° C | 52% | 1014.3 hPa | 0 mm | 0.45 m/s, 302° | - | - |
| 1778003104 | 16.67° C | 51% | 1014.3 hPa | 0 mm | 0 m/s | - | - |
| 1778002804 | 17.22° C | 50% | 1014.2 hPa | 0 mm | 0.45 m/s, 274° | - | - |
| 1778002503 | 17.22° C | 50% | 1014 hPa | 0 mm | 0 m/s | - | - |
| 1778002203 | 17.78° C | 49% | 1014.2 hPa | 0 mm | 0.45 m/s, 34° | - | - |
| 1778001904 | 17.78° C | 49% | 1014.3 hPa | 0 mm | 0.45 m/s, 324° | - | - |
| 1778001603 | 18.33° C | 46% | 1014 hPa | 0 mm | 0.89 m/s, 300° | - | - |
| 1778001304 | 18.89° C | 46% | 1014 hPa | 0 mm | 0.89 m/s, 305° | - | - |
| 1778001004 | 19.44° C | 46% | 1014.3 hPa | 0 mm | 0.45 m/s, 299° | - | - |
| 1778000703 | 19.44° C | 45% | 1014.2 hPa | 0 mm | 0 m/s | - | - |
| 1778000403 | 18.89° C | 45% | 1014.2 hPa | 0 mm | 0.45 m/s, 97° | - | - |
| 1778000103 | 18.89° C | 45% | 1014.2 hPa | 0 mm | 0.89 m/s, 97° | - | - |
| 1777999803 | 18.89° C | 46% | 1014.3 hPa | 0 mm | 1.79 m/s, 106° | - | - |
| 1777999502 | 18.89° C | 43% | 1014.2 hPa | 0 mm | 2.68 m/s, 134° | - | - |
| 1777999203 | 18.89° C | 44% | 1014.3 hPa | 0 mm | 1.79 m/s, 151° | - | - |
| 1777998903 | 19.44° C | 45% | 1014.3 hPa | 0 mm | 0.89 m/s, 114° | - | - |
| 1777998603 | 18.89° C | 46% | 1014.4 hPa | 0 mm | 2.24 m/s, 82° | - | - |
| 1777998302 | 18.89° C | 46% | 1014.5 hPa | 0 mm | 2.24 m/s, 113° | - | - |
| 1777998002 | 18.89° C | 47% | 1014.5 hPa | 0 mm | 1.79 m/s, 107° | - | - |
| 1777997702 | 18.89° C | 47% | 1014.7 hPa | 0 mm | 1.79 m/s, 135° | - | - |
| 1777997403 | 18.89° C | 45% | 1014.7 hPa | 0 mm | 2.68 m/s, 130° | - | - |
* Rain latest hour (hover to see other rain measurements)
** Current wind speed in m/s (hover to see current wind gust speed)